| time (UTC) | temp F | wind direction | speed MPH | gust MPH | rain 1hr in | rain 24hr in | rain mn in | humidity % | barometer mb |
| 20260506155345 | 48 | 196 | 2.0 | 3.0 | 0.00 | 0.00 | 0.00 | 55 | 1016.8 |
| 20260506153502 | 48 | 191 | 2.0 | 3.0 | 0.00 | 0.00 | 0.00 | 57 | 1016.8 |
| 20260506152959 | 48 | 349 | 2.0 | 3.0 | 0.00 | 0.00 | 0.00 | 56 | 1016.7 |
| 20260506152456 | 47 | 205 | 0.0 | 2.0 | 0.00 | 0.00 | 0.00 | 56 | 1016.7 |
| 20260506151954 | 48 | 1 | 6.0 | 9.0 | 0.00 | 0.00 | 0.00 | 55 | 1016.8 |
| 20260506151451 | 48 | 298 | 4.0 | 5.0 | 0.00 | 0.00 | 0.00 | 56 | 1016.5 |
| 20260506150949 | 46 | 348 | 5.0 | 7.0 | 0.00 | 0.00 | 0.00 | 59 | 1016.6 |
| 20260506150445 | 46 | 280 | 8.0 | 12.0 | 0.00 | 0.00 | 0.00 | 58 | 1016.7 |
| 20260506145942 | 46 | 29 | 2.0 | 5.0 | 0.00 | 0.00 | 0.00 | 60 | 1016.5 |
| 20260506145438 | 46 | 5 | 2.0 | 2.0 | 0.00 | 0.00 | 0.00 | 58 | 1016.6 |
| 20260506144936 | 47 | 65 | 5.0 | 5.0 | 0.00 | 0.00 | 0.00 | 58 | 1016.6 |
| 20260506144432 | 48 | 274 | 9.0 | 10.0 | 0.00 | 0.00 | 0.00 | 57 | 1016.5 |
| 20260506143931 | 47 | 57 | 4.0 | 5.0 | 0.00 | 0.00 | 0.00 | 59 | 1016.3 |
| 20260506143427 | 46 | 192 | 0.0 | 0.0 | 0.00 | 0.00 | 0.00 | 59 | 1016.2 |
| 20260506142926 | 46 | 6 | 6.0 | 9.0 | 0.00 | 0.00 | 0.00 | 59 | 1016.4 |
| 20260506142423 | 46 | 138 | 0.0 | 0.0 | 0.00 | 0.00 | 0.00 | 58 | 1016.3 |
| 20260506141921 | 46 | 103 | 3.0 | 5.0 | 0.00 | 0.00 | 0.00 | 58 | 1016.3 |
| 20260506141419 | 46 | 277 | 5.0 | 7.0 | 0.00 | 0.00 | 0.00 | 57 | 1016.2 |
| 20260506140917 | 46 | 24 | 7.0 | 9.0 | 0.00 | 0.00 | 0.00 | 56 | 1016.0 |
| 20260506140414 | 45 | 267 | 1.0 | 2.0 | 0.00 | 0.00 | 0.00 | 56 | 1015.9 |
| 20260506135911 | 45 | 350 | 4.0 | 7.0 | 0.00 | 0.00 | 0.00 | 57 | 1016.0 |
| 20260506135408 | 45 | 329 | 2.0 | 2.0 | 0.00 | 0.00 | 0.00 | 57 | 1016.0 |
| 20260506134904 | 45 | 128 | 4.0 | 5.0 | 0.00 | 0.00 | 0.00 | 56 | 1016.1 |
| 20260506134400 | 44 | 126 | 2.0 | 2.0 | 0.00 | 0.00 | 0.00 | 57 | 1016.0 |
| 20260506133857 | 45 | 27 | 6.0 | 9.0 | 0.00 | 0.00 | 0.00 | 56 | 1015.9 |
| 20260506133354 | 44 | 85 | 3.0 | 5.0 | 0.00 | 0.00 | 0.00 | 57 | 1016.0 |
| 20260506132850 | 43 | 100 | 2.0 | 7.0 | 0.00 | 0.00 | 0.00 | 58 | 1016.0 |
| 20260506132348 | 43 | 190 | 2.0 | 3.0 | 0.00 | 0.00 | 0.00 | 59 | 1016.0 |
| 20260506131846 | 44 | 60 | 4.0 | 5.0 | 0.00 | 0.00 | 0.00 | 57 | 1015.7 |
| 20260506131342 | 44 | 29 | 1.0 | 3.0 | 0.00 | 0.00 | 0.00 | 58 | 1015.9 |
| 20260506130839 | 43 | 24 | 6.0 | 10.0 | 0.00 | 0.00 | 0.00 | 59 | 1016.1 |
| 20260506130335 | 42 | 330 | 6.0 | 7.0 | 0.00 | 0.00 | 0.00 | 60 | 1015.7 |
| 20260506125833 | 42 | 69 | 5.0 | 7.0 | 0.00 | 0.00 | 0.00 | 61 | 1015.6 |
| 20260506125331 | 42 | 56 | 1.0 | 3.0 | 0.00 | 0.00 | 0.00 | 62 | 1015.7 |
| 20260506124830 | 42 | 330 | 6.0 | 10.0 | 0.00 | 0.00 | 0.00 | 64 | 1015.6 |
| 20260506124326 | 42 | 47 | 3.0 | 3.0 | 0.00 | 0.00 | 0.00 | 65 | 1015.7 |
| 20260506123824 | 41 | 343 | 4.0 | 5.0 | 0.00 | 0.00 | 0.00 | 68 | 1015.6 |
| 20260506123322 | 41 | 38 | 4.0 | 5.0 | 0.00 | 0.00 | 0.00 | 69 | 1015.5 |
| 20260506122819 | 41 | 103 | 3.0 | 5.0 | 0.00 | 0.00 | 0.00 | 69 | 1015.5 |
| 20260506122316 | 41 | 122 | 2.0 | 3.0 | 0.00 | 0.00 | 0.00 | 67 | 1015.7 |
| 20260506121814 | 41 | 83 | 2.0 | 3.0 | 0.00 | 0.00 | 0.00 | 69 | 1015.3 |
| 20260506121311 | 41 | 56 | 4.0 | 7.0 | 0.00 | 0.00 | 0.00 | 67 | 1015.2 |
| 20260506120808 | 39 | 42 | 4.0 | 5.0 | 0.00 | 0.00 | 0.00 | 70 | 1015.1 |
| 20260506120306 | 39 | 47 | 8.0 | 10.0 | 0.00 | 0.00 | 0.00 | 70 | 1015.0 |
| 20260506115803 | 39 | 321 | 7.0 | 9.0 | 0.00 | 0.00 | 0.00 | 70 | 1014.8 |
| 20260506115306 | 39 | 57 | 1.0 | 2.0 | 0.00 | 0.00 | 0.00 | 73 | 1014.7 |
| 20260506114759 | 39 | 152 | 0.0 | 0.0 | 0.00 | 0.00 | 0.00 | 75 | 1015.0 |
| 20260506114256 | 40 | 325 | 6.0 | 10.0 | 0.00 | 0.00 | 0.00 | 75 | 1014.9 |
| 20260506113755 | 40 | 285 | 3.0 | 3.0 | 0.00 | 0.00 | 0.00 | 75 | 1014.6 |
| 20260506113252 | 40 | 73 | 2.0 | 3.0 | 0.00 | 0.00 | 0.00 | 75 | 1014.5 |
| 20260506112748 | 40 | 101 | 2.0 | 3.0 | 0.00 | 0.00 | 0.00 | 76 | 1014.6 |
| 20260506112246 | 40 | 157 | 1.0 | 2.0 | 0.00 | 0.00 | 0.00 | 76 | 1014.5 |
| 20260506111743 | 39 | 1 | 2.0 | 3.0 | 0.00 | 0.00 | 0.00 | 76 | 1014.5 |
| 20260506111241 | 39 | 214 | 2.0 | 5.0 | 0.00 | 0.00 | 0.00 | 76 | 1014.3 |
| 20260506110737 | 39 | 280 | 3.0 | 5.0 | 0.00 | 0.00 | 0.00 | 76 | 1014.2 |
| 20260506110235 | 39 | 212 | 0.0 | 0.0 | 0.00 | 0.00 | 0.00 | 77 | 1013.9 |
| 20260506105731 | 39 | 56 | 1.0 | 2.0 | 0.00 | 0.00 | 0.00 | 77 | 1013.9 |
| 20260506105229 | 39 | 214 | 0.0 | 0.0 | 0.00 | 0.00 | 0.00 | 78 | 1013.9 |
| 20260506104727 | 39 | 125 | 0.0 | 2.0 | 0.00 | 0.00 | 0.00 | 77 | 1013.7 |
| 20260506104224 | 39 | 232 | 2.0 | 2.0 | 0.00 | 0.00 | 0.00 | 77 | 1014.0 |
| 20260506103721 | 39 | 213 | 0.0 | 0.0 | 0.00 | 0.00 | 0.00 | 77 | 1013.8 |
| 20260506103218 | 39 | 245 | 0.0 | 0.0 | 0.00 | 0.00 | 0.00 | 77 | 1013.5 |
| 20260506102716 | 39 | 216 | 0.0 | 0.0 | 0.00 | 0.00 | 0.00 | 77 | 1013.7 |
| 20260506102214 | 39 | 173 | 0.0 | 0.0 | 0.00 | 0.00 | 0.00 | 76 | 1013.3 |
| 20260506101710 | 40 | 164 | 0.0 | 0.0 | 0.00 | 0.00 | 0.00 | 76 | 1013.3 |
| 20260506101207 | 40 | 217 | 0.0 | 0.0 | 0.00 | 0.00 | 0.00 | 76 | 1013.4 |
| 20260506100705 | 40 | 193 | 0.0 | 0.0 | 0.00 | 0.00 | 0.00 | 76 | 1013.2 |
| 20260506100203 | 40 | 208 | 0.0 | 0.0 | 0.00 | 0.00 | 0.00 | 76 | 1013.1 |
| 20260506095701 | 41 | 259 | 0.0 | 0.0 | 0.00 | 0.00 | 0.00 | 76 | 1013.1 |
| 20260506095157 | 41 | 225 | 0.0 | 2.0 | 0.00 | 0.00 | 0.00 | 75 | 1013.2 |
| 20260506094655 | 41 | 341 | 2.0 | 3.0 | 0.00 | 0.00 | 0.00 | 76 | 1012.8 |
| 20260506094152 | 42 | 175 | 0.0 | 0.0 | 0.00 | 0.00 | 0.00 | 77 | 1012.6 |
| 20260506093651 | 42 | 203 | 0.0 | 0.0 | 0.00 | 0.00 | 0.00 | 78 | 1012.8 |
| 20260506093148 | 42 | 126 | 1.0 | 2.0 | 0.00 | 0.00 | 0.00 | 80 | 1012.8 |
| 20260506092645 | 42 | 144 | 0.0 | 2.0 | 0.00 | 0.00 | 0.00 | 84 | 1012.6 |
| 20260506092142 | 42 | 212 | 0.0 | 0.0 | 0.00 | 0.00 | 0.00 | 84 | 1012.9 |
| 20260506091640 | 42 | 216 | 0.0 | 2.0 | 0.00 | 0.00 | 0.00 | 84 | 1012.8 |
| 20260506091137 | 42 | 210 | 0.0 | 0.0 | 0.00 | 0.00 | 0.00 | 84 | 1012.7 |
| 20260506090636 | 42 | 259 | 3.0 | 5.0 | 0.00 | 0.00 | 0.00 | 84 | 1012.7 |
| 20260506090131 | 43 | 235 | 1.0 | 2.0 | 0.00 | 0.00 | 0.00 | 84 | 1012.7 |
| 20260506085629 | 43 | 288 | 1.0 | 2.0 | 0.00 | 0.00 | 0.00 | 83 | 1012.7 |
| 20260506085125 | 43 | 217 | 0.0 | 0.0 | 0.00 | 0.00 | 0.00 | 83 | 1012.6 |
| 20260506084621 | 43 | 218 | 2.0 | 3.0 | 0.00 | 0.00 | 0.00 | 82 | 1012.6 |
| 20260506084118 | 43 | 228 | 0.0 | 2.0 | 0.00 | 0.00 | 0.00 | 82 | 1012.8 |
| 20260506083615 | 43 | 260 | 0.0 | 2.0 | 0.00 | 0.00 | 0.00 | 82 | 1012.7 |
| 20260506083113 | 43 | 208 | 0.0 | 0.0 | 0.00 | 0.00 | 0.00 | 81 | 1012.8 |
| 20260506082609 | 43 | 241 | 2.0 | 2.0 | 0.00 | 0.00 | 0.00 | 81 | 1012.7 |
| 20260506082105 | 43 | 227 | 0.0 | 0.0 | 0.00 | 0.00 | 0.00 | 81 | 1012.9 |
| 20260506081603 | 44 | 176 | 0.0 | 0.0 | 0.00 | 0.00 | 0.00 | 80 | 1012.8 |
| 20260506081100 | 44 | 219 | 0.0 | 0.0 | 0.00 | 0.00 | 0.00 | 80 | 1012.6 |
| 20260506080558 | 44 | 211 | 0.0 | 0.0 | 0.00 | 0.00 | 0.00 | 79 | 1012.9 |
| 20260506073038 | 45 | 209 | 1.0 | 2.0 | 0.00 | 0.00 | 0.00 | 75 | 1012.5 |
| 20260506072536 | 45 | 221 | 0.0 | 0.0 | 0.00 | 0.00 | 0.00 | 74 | 1012.8 |
| 20260506072033 | 45 | 208 | 1.0 | 2.0 | 0.00 | 0.00 | 0.00 | 74 | 1012.7 |
| 20260506071531 | 45 | 251 | 2.0 | 3.0 | 0.00 | 0.00 | 0.00 | 72 | 1012.4 |
| 20260506071028 | 45 | 294 | 1.0 | 2.0 | 0.00 | 0.00 | 0.00 | 71 | 1012.6 |
| 20260506070525 | 45 | 270 | 4.0 | 5.0 | 0.00 | 0.00 | 0.00 | 70 | 1012.6 |
| 20260506062503 | 46 | 221 | 0.0 | 0.0 | 0.00 | 0.00 | 0.00 | 62 | 1012.6 |
| 20260506061959 | 46 | 237 | 1.0 | 2.0 | 0.00 | 0.00 | 0.00 | 61 | 1012.7 |
| 20260506061455 | 47 | 244 | 1.0 | 2.0 | 0.00 | 0.00 | 0.00 | 61 | 1012.6 |
| 20260506060953 | 47 | 218 | 1.0 | 3.0 | 0.00 | 0.00 | 0.00 | 60 | 1012.8 |
| 20260506060451 | 47 | 292 | 3.0 | 3.0 | 0.00 | 0.00 | 0.00 | 59 | 1013.0 |
| 20260506050920 | 48 | 270 | 3.0 | 3.0 | 0.00 | 0.00 | 0.00 | 54 | 1012.3 |
| 20260506050418 | 48 | 268 | 4.0 | 5.0 | 0.00 | 0.00 | 0.00 | 54 | 1012.5 |
| 20260506044908 | 48 | 261 | 2.0 | 3.0 | 0.00 | 0.00 | 0.00 | 54 | 1012.6 |
| 20260506044406 | 48 | 218 | 3.0 | 5.0 | 0.00 | 0.00 | 0.00 | 55 | 1012.4 |
| 20260506043903 | 48 | 268 | 3.0 | 5.0 | 0.00 | 0.00 | 0.00 | 53 | 1012.2 |
| 20260506043400 | 48 | 269 | 3.0 | 3.0 | 0.00 | 0.00 | 0.00 | 53 | 1011.9 |
| 20260506042858 | 48 | 221 | 2.0 | 3.0 | 0.00 | 0.00 | 0.00 | 54 | 1012.0 |
| 20260506042357 | 48 | 280 | 5.0 | 7.0 | 0.00 | 0.00 | 0.00 | 52 | 1012.2 |
| 20260506041855 | 48 | 269 | 5.0 | 7.0 | 0.00 | 0.00 | 0.00 | 52 | 1012.0 |
| 20260506041352 | 48 | 284 | 6.0 | 9.0 | 0.00 | 0.00 | 0.00 | 52 | 1012.4 |
| 20260506040849 | 48 | 251 | 3.0 | 5.0 | 0.00 | 0.00 | 0.00 | 52 | 1012.4 |
| 20260506040346 | 48 | 204 | 3.0 | 3.0 | 0.00 | 0.00 | 0.00 | 53 | 1012.3 |
| 20260506035842 | 48 | 210 | 2.0 | 3.0 | 0.00 | 0.05 | 0.05 | 53 | 1012.4 |
| 20260506035340 | 48 | 237 | 3.0 | 5.0 | 0.00 | 0.05 | 0.05 | 52 | 1012.3 |
| 20260506034837 | 48 | 255 | 3.0 | 3.0 | 0.00 | 0.05 | 0.05 | 52 | 1012.4 |
| 20260506034334 | 48 | 239 | 2.0 | 3.0 | 0.00 | 0.05 | 0.05 | 52 | 1012.4 |
| 20260506033831 | 48 | 200 | 2.0 | 2.0 | 0.00 | 0.05 | 0.05 | 52 | 1012.3 |
| 20260506033328 | 49 | 240 | 4.0 | 5.0 | 0.00 | 0.05 | 0.05 | 52 | 1012.1 |
| 20260506032825 | 49 | 285 | 5.0 | 7.0 | 0.00 | 0.05 | 0.05 | 51 | 1012.1 |
| 20260506032322 | 49 | 280 | 5.0 | 7.0 | 0.00 | 0.05 | 0.05 | 52 | 1012.4 |
| 20260506031819 | 48 | 210 | 1.0 | 2.0 | 0.00 | 0.05 | 0.05 | 52 | 1012.3 |
| 20260506031316 | 49 | 219 | 2.0 | 2.0 | 0.00 | 0.05 | 0.05 | 53 | 1012.5 |
| 20260506030814 | 49 | 272 | 2.0 | 3.0 | 0.00 | 0.05 | 0.05 | 52 | 1012.3 |
| 20260506030311 | 49 | 244 | 3.0 | 3.0 | 0.00 | 0.05 | 0.05 | 51 | 1012.3 |
| 20260506025808 | 49 | 216 | 2.0 | 2.0 | 0.00 | 0.05 | 0.05 | 51 | 1012.1 |
| 20260506025306 | 49 | 270 | 2.0 | 3.0 | 0.00 | 0.05 | 0.05 | 52 | 1012.2 |
| 20260506024802 | 49 | 231 | 2.0 | 2.0 | 0.00 | 0.05 | 0.05 | 51 | 1012.1 |
| 20260506024258 | 49 | 217 | 2.0 | 2.0 | 0.00 | 0.05 | 0.05 | 51 | 1012.1 |
| 20260506023754 | 49 | 222 | 0.0 | 0.0 | 0.00 | 0.05 | 0.05 | 51 | 1012.1 |
| 20260506023252 | 49 | 195 | 2.0 | 3.0 | 0.00 | 0.05 | 0.05 | 52 | 1012.1 |
| 20260506022748 | 49 | 211 | 1.0 | 2.0 | 0.00 | 0.05 | 0.05 | 52 | 1012.2 |
| 20260506022246 | 49 | 206 | 3.0 | 5.0 | 0.00 | 0.05 | 0.05 | 51 | 1011.9 |
| 20260506021744 | 49 | 205 | 2.0 | 3.0 | 0.00 | 0.05 | 0.05 | 51 | 1012.1 |
| 20260506021240 | 49 | 206 | 0.0 | 0.0 | 0.00 | 0.05 | 0.05 | 50 | 1012.1 |
| 20260506020737 | 49 | 204 | 0.0 | 0.0 | 0.00 | 0.05 | 0.05 | 50 | 1011.9 |
| 20260506020235 | 50 | 208 | 1.0 | 2.0 | 0.00 | 0.05 | 0.05 | 50 | 1012.1 |
| 20260506015732 | 50 | 191 | 2.0 | 2.0 | 0.00 | 0.05 | 0.05 | 48 | 1011.9 |
| 20260506015230 | 50 | 224 | 1.0 | 2.0 | 0.00 | 0.05 | 0.05 | 48 | 1011.8 |
| 20260506014727 | 50 | 276 | 3.0 | 3.0 | 0.00 | 0.05 | 0.05 | 48 | 1011.7 |
| 20260506014223 | 50 | 276 | 4.0 | 5.0 | 0.00 | 0.05 | 0.05 | 47 | 1011.7 |
| 20260506013720 | 50 | 203 | 2.0 | 3.0 | 0.00 | 0.05 | 0.05 | 48 | 1011.5 |
| 20260506013217 | 50 | 214 | 2.0 | 2.0 | 0.00 | 0.05 | 0.05 | 48 | 1011.7 |
| 20260506012713 | 50 | 203 | 4.0 | 5.0 | 0.00 | 0.05 | 0.05 | 48 | 1011.7 |
| 20260506012211 | 50 | 226 | 2.0 | 2.0 | 0.00 | 0.05 | 0.05 | 48 | 1011.3 |
| 20260506011708 | 51 | 199 | 1.0 | 2.0 | 0.00 | 0.05 | 0.05 | 48 | 1011.5 |
| 20260506011204 | 51 | 211 | 0.0 | 2.0 | 0.00 | 0.05 | 0.05 | 48 | 1011.4 |
| 20260506010703 | 51 | 204 | 1.0 | 2.0 | 0.00 | 0.05 | 0.05 | 46 | 1011.5 |
| 20260506010200 | 51 | 186 | 3.0 | 3.0 | 0.00 | 0.05 | 0.05 | 45 | 1011.4 |
| 20260506005656 | 51 | 240 | 4.0 | 5.0 | 0.00 | 0.05 | 0.05 | 46 | 1011.3 |
| 20260506005153 | 51 | 214 | 2.0 | 3.0 | 0.00 | 0.05 | 0.05 | 46 | 1011.3 |
| 20260506004649 | 51 | 233 | 2.0 | 3.0 | 0.00 | 0.05 | 0.05 | 45 | 1011.5 |
| 20260506004147 | 52 | 238 | 2.0 | 3.0 | 0.00 | 0.05 | 0.05 | 45 | 1011.5 |
| 20260506003643 | 52 | 222 | 4.0 | 9.0 | 0.00 | 0.05 | 0.05 | 45 | 1011.5 |
| 20260506003139 | 52 | 215 | 2.0 | 5.0 | 0.00 | 0.05 | 0.05 | 44 | 1011.4 |
| 20260506002635 | 52 | 203 | 3.0 | 3.0 | 0.00 | 0.05 | 0.05 | 43 | 1011.4 |
| 20260506002131 | 52 | 232 | 4.0 | 5.0 | 0.00 | 0.05 | 0.05 | 43 | 1011.3 |
| 20260506001627 | 52 | 269 | 9.0 | 10.0 | 0.00 | 0.05 | 0.05 | 43 | 1011.4 |
| 20260506001125 | 52 | 205 | 2.0 | 2.0 | 0.00 | 0.05 | 0.05 | 43 | 1011.1 |
| 20260506000622 | 52 | 295 | 7.0 | 10.0 | 0.00 | 0.05 | 0.05 | 42 | 1011.1 |
| 20260506000119 | 52 | 217 | 3.0 | 3.0 | 0.00 | 0.05 | 0.05 | 42 | 1011.1 |
| 20260505235617 | 53 | 293 | 8.0 | 10.0 | 0.00 | 0.05 | 0.05 | 42 | 1011.1 |
| 20260505235114 | 53 | 212 | 2.0 | 5.0 | 0.00 | 0.05 | 0.05 | 44 | 1011.2 |
| 20260505234611 | 53 | 287 | 3.0 | 3.0 | 0.00 | 0.05 | 0.05 | 42 | 1010.8 |
| 20260505234108 | 53 | 326 | 12.0 | 17.0 | 0.00 | 0.05 | 0.05 | 41 | 1010.8 |
| 20260505233606 | 53 | 206 | 9.0 | 15.0 | 0.00 | 0.05 | 0.05 | 41 | 1011.0 |
| 20260505233102 | 53 | 260 | 4.0 | 9.0 | 0.00 | 0.05 | 0.05 | 41 | 1010.7 |
| 20260505232600 | 53 | 249 | 7.0 | 9.0 | 0.00 | 0.05 | 0.05 | 40 | 1010.5 |
| 20260505232058 | 53 | 272 | 9.0 | 12.0 | 0.00 | 0.05 | 0.05 | 39 | 1010.7 |
| 20260505231554 | 53 | 201 | 2.0 | 3.0 | 0.00 | 0.05 | 0.05 | 39 | 1010.6 |
| 20260505231053 | 54 | 234 | 2.0 | 3.0 | 0.00 | 0.05 | 0.05 | 39 | 1010.5 |
| 20260505230550 | 54 | 299 | 10.0 | 12.0 | 0.00 | 0.05 | 0.05 | 38 | 1010.4 |
| 20260505230046 | 54 | 217 | 2.0 | 3.0 | 0.00 | 0.05 | 0.05 | 40 | 1010.6 |
| 20260505225543 | 54 | 268 | 5.0 | 7.0 | 0.00 | 0.05 | 0.05 | 39 | 1010.6 |
| 20260505225039 | 54 | 253 | 9.0 | 10.0 | 0.00 | 0.05 | 0.05 | 38 | 1010.8 |
| 20260505224536 | 54 | 211 | 4.0 | 5.0 | 0.00 | 0.05 | 0.05 | 38 | 1010.7 |
| 20260505224034 | 54 | 195 | 2.0 | 2.0 | 0.00 | 0.05 | 0.05 | 39 | 1010.7 |
| 20260505223531 | 54 | 254 | 5.0 | 5.0 | 0.00 | 0.05 | 0.05 | 38 | 1010.8 |
| 20260505223027 | 55 | 269 | 7.0 | 9.0 | 0.00 | 0.05 | 0.05 | 37 | 1010.7 |
| 20260505222523 | 55 | 210 | 4.0 | 5.0 | 0.00 | 0.05 | 0.05 | 39 | 1010.8 |
| 20260505222019 | 55 | 217 | 5.0 | 7.0 | 0.00 | 0.05 | 0.05 | 38 | 1010.5 |
| 20260505221517 | 55 | 235 | 6.0 | 7.0 | 0.00 | 0.05 | 0.05 | 38 | 1010.3 |
| 20260505221013 | 55 | 203 | 6.0 | 9.0 | 0.00 | 0.05 | 0.05 | 37 | 1010.6 |
| 20260505220510 | 55 | 285 | 6.0 | 9.0 | 0.00 | 0.05 | 0.05 | 37 | 1010.8 |
| 20260505220008 | 55 | 274 | 4.0 | 5.0 | 0.00 | 0.05 | 0.05 | 39 | 1010.6 |
| 20260505215506 | 55 | 276 | 1.0 | 2.0 | 0.00 | 0.05 | 0.05 | 41 | 1010.8 |
| 20260505215003 | 55 | 227 | 6.0 | 7.0 | 0.00 | 0.05 | 0.05 | 41 | 1010.5 |
| 20260505214502 | 55 | 271 | 5.0 | 7.0 | 0.00 | 0.05 | 0.05 | 40 | 1010.6 |
| 20260505213958 | 55 | 208 | 4.0 | 5.0 | 0.00 | 0.05 | 0.05 | 39 | 1010.8 |
| 20260505213456 | 55 | 255 | 2.0 | 3.0 | 0.00 | 0.05 | 0.05 | 40 | 1010.7 |
| 20260505212952 | 55 | 172 | 5.0 | 7.0 | 0.00 | 0.05 | 0.05 | 40 | 1010.8 |
| 20260505212449 | 55 | 208 | 3.0 | 5.0 | 0.00 | 0.05 | 0.05 | 42 | 1010.6 |
| 20260505211945 | 55 | 291 | 11.0 | 14.0 | 0.00 | 0.05 | 0.05 | 42 | 1010.5 |
| 20260505211443 | 55 | 257 | 8.0 | 10.0 | 0.00 | 0.05 | 0.05 | 42 | 1010.5 |
| 20260505210939 | 56 | 202 | 10.0 | 14.0 | 0.00 | 0.05 | 0.05 | 42 | 1010.8 |
| 20260505210436 | 56 | 215 | 2.0 | 2.0 | 0.00 | 0.05 | 0.05 | 44 | 1010.8 |
| 20260505205933 | 56 | 223 | 9.0 | 14.0 | 0.00 | 0.05 | 0.05 | 43 | 1010.7 |
| 20260505205432 | 56 | 220 | 2.0 | 2.0 | 0.00 | 0.05 | 0.05 | 46 | 1010.6 |
| 20260505204928 | 55 | 201 | 4.0 | 7.0 | 0.00 | 0.05 | 0.05 | 46 | 1010.5 |
| 20260505204426 | 55 | 211 | 2.0 | 3.0 | 0.00 | 0.05 | 0.05 | 46 | 1010.6 |
| 20260505203923 | 55 | 258 | 6.0 | 9.0 | 0.00 | 0.05 | 0.05 | 45 | 1010.7 |
| 20260505203419 | 56 | 196 | 7.0 | 10.0 | 0.00 | 0.05 | 0.05 | 47 | 1010.7 |
| 20260505202916 | 56 | 253 | 7.0 | 9.0 | 0.00 | 0.05 | 0.05 | 47 | 1010.8 |
| 20260505202412 | 56 | 279 | 11.0 | 17.0 | 0.00 | 0.05 | 0.05 | 48 | 1010.7 |
| 20260505201909 | 56 | 291 | 6.0 | 7.0 | 0.00 | 0.05 | 0.05 | 48 | 1010.6 |
| 20260505201406 | 56 | 235 | 7.0 | 9.0 | 0.00 | 0.05 | 0.05 | 48 | 1010.7 |
| 20260505200904 | 55 | 200 | 9.0 | 10.0 | 0.00 | 0.05 | 0.05 | 48 | 1010.7 |
| 20260505200401 | 55 | 235 | 3.0 | 5.0 | 0.00 | 0.05 | 0.05 | 49 | 1010.7 |
| 20260505195856 | 55 | 284 | 9.0 | 12.0 | 0.00 | 0.05 | 0.05 | 48 | 1010.8 |
| 20260505195354 | 55 | 230 | 2.0 | 2.0 | 0.00 | 0.05 | 0.05 | 51 | 1010.8 |
| 20260505194851 | 55 | 203 | 7.0 | 10.0 | 0.00 | 0.05 | 0.05 | 50 | 1010.7 |
| 20260505194348 | 55 | 321 | 4.0 | 5.0 | 0.00 | 0.05 | 0.05 | 50 | 1010.8 |
| 20260505193849 | 56 | 235 | 5.0 | 7.0 | 0.00 | 0.05 | 0.05 | 52 | 1010.8 |
| 20260505193347 | 55 | 226 | 7.0 | 7.0 | 0.00 | 0.05 | 0.05 | 51 | 1010.7 |
| 20260505192844 | 55 | 243 | 11.0 | 14.0 | 0.00 | 0.05 | 0.05 | 52 | 1010.5 |
| 20260505192342 | 55 | 193 | 5.0 | 7.0 | 0.00 | 0.05 | 0.05 | 56 | 1010.8 |
| 20260505191839 | 55 | 304 | 10.0 | 14.0 | 0.00 | 0.05 | 0.05 | 56 | 1010.8 |
| 20260505191338 | 55 | 261 | 6.0 | 9.0 | 0.00 | 0.05 | 0.05 | 58 | 1010.7 |
| 20260505190834 | 55 | 212 | 10.0 | 15.0 | 0.00 | 0.05 | 0.05 | 59 | 1010.7 |
| 20260505190330 | 55 | 217 | 1.0 | 2.0 | 0.00 | 0.05 | 0.05 | 62 | 1010.6 |
| 20260505185826 | 55 | 244 | 4.0 | 5.0 | 0.00 | 0.05 | 0.05 | 62 | 1010.6 |
| 20260505185322 | 54 | 205 | 2.0 | 2.0 | 0.00 | 0.05 | 0.05 | 63 | 1010.7 |
| 20260505184818 | 54 | 194 | 4.0 | 5.0 | 0.00 | 0.05 | 0.05 | 63 | 1010.8 |
| 20260505184316 | 54 | 214 | 4.0 | 5.0 | 0.00 | 0.05 | 0.05 | 62 | 1010.7 |
| 20260505183813 | 55 | 238 | 5.0 | 7.0 | 0.00 | 0.05 | 0.05 | 62 | 1010.7 |
| 20260505183309 | 54 | 280 | 4.0 | 5.0 | 0.00 | 0.05 | 0.05 | 62 | 1010.6 |
| 20260505182806 | 54 | 247 | 6.0 | 7.0 | 0.00 | 0.05 | 0.05 | 62 | 1010.5 |
| 20260505182305 | 54 | 234 | 10.0 | 12.0 | 0.00 | 0.05 | 0.05 | 64 | 1010.5 |
| 20260505181800 | 54 | 294 | 8.0 | 9.0 | 0.00 | 0.05 | 0.05 | 64 | 1010.3 |
| 20260505181257 | 54 | 201 | 2.0 | 3.0 | 0.00 | 0.05 | 0.05 | 64 | 1010.3 |
| 20260505180753 | 53 | 265 | 9.0 | 10.0 | 0.00 | 0.05 | 0.05 | 67 | 1010.2 |
| 20260505180250 | 53 | 191 | 4.0 | 5.0 | 0.00 | 0.05 | 0.05 | 68 | 1010.3 |
| 20260505175747 | 53 | 181 | 3.0 | 3.0 | 0.00 | 0.05 | 0.05 | 68 | 1010.3 |
| 20260505175243 | 53 | 173 | 2.0 | 2.0 | 0.00 | 0.05 | 0.05 | 70 | 1010.2 |
| 20260505174739 | 53 | 198 | 3.0 | 3.0 | 0.00 | 0.05 | 0.05 | 70 | 1010.1 |
| 20260505174237 | 53 | 223 | 3.0 | 3.0 | 0.00 | 0.05 | 0.05 | 71 | 1010.1 |
| 20260505173733 | 53 | 202 | 10.0 | 14.0 | 0.00 | 0.05 | 0.05 | 69 | 1009.9 |
| 20260505173230 | 53 | 205 | 2.0 | 3.0 | 0.00 | 0.05 | 0.05 | 70 | 1009.9 |
| 20260505172726 | 53 | 179 | 2.0 | 2.0 | 0.00 | 0.05 | 0.05 | 71 | 1010.2 |
| 20260505172224 | 53 | 207 | 6.0 | 9.0 | 0.00 | 0.05 | 0.05 | 70 | 1010.3 |
| 20260505171723 | 53 | 226 | 5.0 | 7.0 | 0.00 | 0.05 | 0.05 | 69 | 1009.9 |
| 20260505171221 | 52 | 278 | 5.0 | 7.0 | 0.00 | 0.05 | 0.05 | 71 | 1010.1 |
| 20260505170717 | 52 | 205 | 5.0 | 9.0 | 0.00 | 0.05 | 0.05 | 71 | 1010.3 |
| 20260505170214 | 52 | 243 | 2.0 | 3.0 | 0.00 | 0.05 | 0.05 | 72 | 1010.0 |
| 20260505165709 | 52 | 211 | 1.0 | 2.0 | 0.00 | 0.05 | 0.05 | 74 | 1009.9 |
| 20260505165206 | 52 | 217 | 0.0 | 2.0 | 0.00 | 0.05 | 0.05 | 74 | 1010.2 |
| 20260505164701 | 51 | 225 | 3.0 | 5.0 | 0.00 | 0.05 | 0.05 | 75 | 1010.1 |
| 20260505164159 | 51 | 196 | 3.0 | 5.0 | 0.00 | 0.05 | 0.05 | 75 | 1010.4 |
| 20260505163657 | 50 | 197 | 0.0 | 0.0 | 0.00 | 0.05 | 0.05 | 76 | 1010.5 |
| 20260505163155 | 50 | 214 | 6.0 | 9.0 | 0.00 | 0.05 | 0.05 | 75 | 1010.3 |
| 20260505162652 | 50 | 208 | 2.0 | 2.0 | 0.00 | 0.05 | 0.05 | 76 | 1010.5 |
| 20260505162149 | 50 | 220 | 1.0 | 3.0 | 0.00 | 0.05 | 0.05 | 76 | 1010.5 |
| 20260505161646 | 50 | 253 | 3.0 | 5.0 | 0.00 | 0.05 | 0.05 | 77 | 1010.2 |
| 20260505161143 | 50 | 242 | 3.0 | 3.0 | 0.00 | 0.05 | 0.05 | 78 | 1010.3 |
| 20260505160641 | 49 | 236 | 2.0 | 2.0 | 0.00 | 0.05 | 0.05 | 77 | 1010.2 |
| 20260505160138 | 50 | 243 | 3.0 | 3.0 | 0.00 | 0.05 | 0.05 | 78 | 1010.3 |